Temp
5 5 5 4 5 6 6 6 6 6 6 6 6 7 7 7 7 7 7 7 6 6 6 6 6 6 6 6 6 6 6 6 6 6 6 6 6 6 5 4 4 4
5 5 5 5 5 6 6 6 6 6 6 6 6 7 7 7 7 7 7 6 6 6 6 6 6 6 6 6 6 6 6 6 6 6 6 6 6 6 5 3 4 4
5 5 6 6 5 6 6 6 6 6 6 6 6 7 7 7 7 7 6 6 6 6 6 6 6 6 6 6 6 6 6 6 6 6 6 6 6 6 4 3 3 4
6 6 6 6 6 6 6 6 6 6 6 6 6 7 7 7 7 6 6 6 6 6 6 6 6 6 6 6 6 6 6 6 6 6 6 6 6 5 5 4 4 4
6 6 6 6 6 6 6 6 6 6 6 6 7 7 7 7 7 6 6 6 6 6 6 6 6 6 6 6 6 6 6 6 6 6 6 6 6 6 5 4 4 4
6 6 6 6 6 6 6 6 6 6 6 7 7 7 7 7 6 6 6 6 6 6 6 6 6 6 6 6 6 6 6 6 6 6 6 6 6 6 5 4 4 3
6 6 6 6 6 6 6 6 7 7 7 7 7 7 7 7 6 6 6 6 6 6 5 6 6 6 6 6 6 6 6 6 6 6 6 6 5 5 5 4 4 3
5 6 6 6 6 6 6 6 7 7 7 7 7 7 7 6 6 6 6 6 6 5 5 5 5 5 5 5 6 6 6 6 6 6 6 5 5 5 5 4 4 3
5 6 6 6 6 6 6 6 7 7 7 7 7 7 6 6 6 6 6 6 5 5 5 5 5 5 5 5 5 5 5 5 6 6 6 5 5 5 4 4 3 3
5 6 6 6 6 6 6 6 7 7 7 7 6 6 6 6 6 6 6 6 5 5 5 5 5 5 5 5 5 5 5 5 5 5 5 5 5 4 4 3 3 3
5 6 6 6 6 6 6 6 6 6 6 6 6 6 6 6 6 6 6 6 5 5 5 5 5 5 5 5 5 5 5 5 5 5 5 5 4 4 3 3 3 3
5 6 6 6 6 6 6 6 6 6 6 6 6 6 6 6 6 6 6 6 5 5 5 5 5 5 5 5 5 5 5 5 5 5 5 4 4 3 3 3 3 3
5 5 5 6 6 6 6 6 6 6 6 6 6 6 6 6 6 6 6 6 5 5 5 5 5 5 5 5 5 5 5 5 5 5 5 4 4 3 3 3 3 3
5 5 6 6 6 6 6 6 6 6 5 6 6 6 6 6 6 6 6 6 5 5 5 5 5 5 5 4 4 5 5 5 5 5 4 4 4 3 3 3 3 3
5 6 6 6 6 6 6 6 5 5 5 5 6 6 6 6 6 6 6 5 5 5 5 5 5 4 4 4 4 4 4 4 4 4 4 3 3 3 3 3 3 3
6 6 6 6 6 6 5 5 5 5 5 5 6 6 6 6 6 6 6 5 5 5 5 5 5 4 4 4 4 4 4 4 4 4 3 3 3 3 2 2 2 2
6 6 6 6 6 5 5 5 5 5 5 5 6 6 6 6 6 6 6 5 5 5 5 5 4 4 4 4 4 4 4 4 3 3 3 2 2 2 2 2 2 2
6 6 6 6 5 5 5 4 4 5 5 5 5 6 6 6 6 6 5 5 5 5 5 4 4 4 4 4 4 4 4 3 3 2 2 2 2 2 2 2 2 2
6 6 6 5 5 5 4 4 4 5 5 5 5 5 6 6 5 5 5 5 5 5 4 4 4 4 4 4 3 3 3 3 2 2 2 2 2 2 2 2 2 2
5 6 5 5 4 4 4 4 4 5 5 5 5 5 5 5 5 5 5 5 5 4 4 4 4 4 3 3 3 3 3 2 2 2 2 1 2 2 2 2 1 1
5 5 5 4 4 4 4 4 4 5 5 5 5 5 5 5 5 5 5 5 4 4 4 4 3 3 3 3 3 2 2 2 2 2 1 1 1 1 1 1 1 1
5 5 4 4 4 4 4 4 4 5 5 5 5 5 5 5 5 5 5 4 4 4 4 3 3 3 3 2 2 2 2 2 1 1 1 1 1 1 1 1 1 1
4 4 4 4 4 4 4 4 4 4 4 5 5 5 5 5 5 4 4 4 4 3 3 3 3 3 2 2 2 2 1 1 1 1 1 1 1 1 1 1 1 1
4 4 3 4 4 4 4 4 4 4 4 4 4 4 4 4 4 4 4 4 3 3 3 3 3 2 2 2 1 1 1 1 1 1 1 1 1 1 1 1 1 1
3 3 3 3 4 4 4 4 4 4 4 4 4 4 4 4 4 4 4 3 3 3 3 2 2 2 2 1 1 1 1 1 1 1 1 1 1 1 1 1 1 1
3 3 3 3 3 3 3 3 3 4 4 4 4 4 4 4 4 4 3 3 3 2 2 2 2 2 1 1 1 1 1 1 1 1 1 1 1 1 1 1 1 1
Height
3139 3141 3144 3142 3140 3143 3145 3146 3146 3146 3147 3147 3147 3147 3147 3146 3145 3144 3144 3142 3142 3141 3140 3140 3139 3138 3137 3136 3135 3133 3132 3131 3130 3129 3127 3126 3124 3123 3122 3121 3120 3119
3139 3141 3142 3141 3140 3143 3144 3144 3145 3145 3146 3146 3146 3145 3145 3144 3144 3143 3142 3141 3141 3140 3139 3138 3137 3136 3135 3134 3133 3132 3130 3129 3128 3127 3126 3124 3122 3121 3120 3119 3118 3117
3137 3138 3139 3140 3140 3142 3142 3143 3143 3144 3144 3144 3144 3144 3143 3143 3142 3141 3141 3140 3139 3139 3138 3137 3136 3135 3134 3132 3131 3130 3129 3128 3127 3125 3124 3122 3121 3119 3118 3117 3116 3115
3134 3136 3137 3138 3139 3140 3140 3141 3142 3142 3143 3143 3142 3142 3142 3141 3141 3140 3140 3139 3138 3137 3137 3136 3135 3134 3132 3131 3130 3129 3128 3127 3125 3124 3122 3120 3119 3117 3116 3115 3114 3113
3132 3133 3135 3136 3137 3138 3139 3139 3140 3140 3141 3141 3141 3141 3140 3140 3140 3139 3138 3138 3137 3136 3135 3135 3133 3132 3131 3130 3129 3128 3127 3125 3124 3122 3121 3119 3117 3115 3114 3113 3112 3112
3130 3132 3134 3135 3136 3136 3137 3138 3138 3139 3139 3139 3139 3139 3139 3139 3138 3138 3137 3136 3136 3135 3134 3133 3132 3131 3130 3129 3128 3127 3125 3124 3122 3120 3119 3117 3116 3114 3113 3112 3111 3110
3129 3131 3132 3133 3134 3135 3135 3136 3137 3137 3137 3137 3137 3137 3137 3137 3137 3136 3136 3135 3134 3134 3133 3132 3131 3130 3128 3127 3126 3125 3124 3122 3120 3119 3117 3115 3114 3113 3112 3110 3109 3108
3128 3129 3131 3132 3133 3133 3134 3135 3135 3135 3135 3135 3135 3135 3136 3136 3135 3135 3134 3133 3133 3132 3132 3130 3129 3128 3127 3126 3125 3124 3122 3121 3119 3117 3115 3114 3112 3111 3110 3109 3107 3106
3126 3128 3129 3130 3131 3132 3132 3133 3133 3133 3133 3134 3134 3134 3134 3134 3134 3133 3133 3132 3131 3131 3130 3129 3128 3127 3125 3124 3123 3122 3121 3119 3117 3115 3114 3112 3111 3110 3109 3107 3106 3105
3125 3126 3127 3128 3129 3130 3130 3131 3131 3131 3131 3132 3132 3132 3133 3133 3132 3132 3131 3130 3130 3129 3128 3127 3126 3125 3124 3123 3122 3121 3119 3117 3116 3114 3112 3110 3109 3108 3107 3106 3105 3104
3123 3124 3125 3126 3127 3128 3128 3129 3129 3129 3130 3130 3130 3131 3131 3131 3131 3130 3129 3129 3128 3128 3127 3126 3125 3124 3122 3122 3120 3119 3118 3116 3114 3112 3110 3109 3107 3106 3106 3105 3103 3102
3121 3122 3123 3124 3125 3126 3126 3127 3127 3127 3128 3128 3129 3129 3130 3129 3129 3128 3128 3127 3127 3126 3125 3124 3123 3122 3121 3120 3119 3118 3116 3115 3113 3111 3109 3107 3106 3105 3104 3103 3101 3100
3119 3120 3121 3123 3123 3124 3124 3124 3125 3125 3126 3126 3127 3127 3128 3127 3127 3127 3126 3126 3126 3125 3124 3123 3122 3121 3120 3119 3118 3117 3115 3113 3111 3109 3108 3106 3105 3103 3102 3101 3100 3098
3118 3119 3120 3121 3121 3122 3122 3122 3123 3123 3124 3125 3125 3126 3126 3125 3125 3125 3125 3125 3124 3124 3123 3122 3121 3120 3119 3118 3117 3115 3114 3112 3110 3108 3107 3105 3103 3102 3101 3100 3098 3097
3117 3118 3118 3119 3119 3120 3120 3120 3121 3122 3122 3123 3123 3124 3124 3124 3123 3123 3124 3123 3123 3123 3122 3121 3120 3119 3118 3116 3115 3114 3112 3111 3109 3107 3105 3104 3102 3101 3100 3098 3097 3096
3115 3116 3116 3117 3117 3118 3118 3118 3119 3120 3121 3121 3121 3122 3122 3122 3122 3122 3122 3122 3122 3121 3120 3119 3118 3117 3116 3115 3113 3112 3111 3109 3108 3106 3104 3103 3102 3100 3099 3097 3096 3095
3113 3114 3114 3115 3115 3115 3116 3117 3118 3118 3119 3119 3120 3120 3120 3120 3121 3121 3121 3121 3121 3120 3119 3118 3117 3116 3115 3113 3112 3111 3110 3108 3106 3105 3104 3102 3101 3100 3098 3097 3095 3094
3111 3111 3112 3112 3113 3114 3114 3115 3116 3117 3117 3117 3118 3118 3119 3119 3119 3120 3120 3120 3119 3119 3118 3117 3116 3114 3113 3112 3111 3110 3108 3107 3106 3104 3103 3102 3100 3099 3098 3096 3095 3093
3109 3110 3110 3111 3111 3112 3113 3114 3115 3115 3116 3116 3116 3117 3117 3118 3118 3118 3118 3118 3118 3117 3116 3115 3114 3113 3112 3111 3110 3109 3107 3106 3105 3104 3103 3101 3100 3099 3097 3096 3094 3093
3108 3108 3108 3108 3109 3110 3111 3112 3113 3114 3114 3115 3115 3116 3116 3116 3117 3117 3117 3117 3116 3116 3115 3114 3113 3112 3111 3110 3109 3108 3106 3105 3104 3103 3102 3101 3100 3098 3097 3095 3094 3093
3105 3105 3105 3107 3108 3109 3110 3111 3112 3112 3113 3113 3114 3114 3115 3115 3115 3115 3115 3115 3115 3114 3113 3112 3111 3110 3110 3109 3108 3107 3106 3105 3104 3103 3102 3100 3099 3098 3096 3095 3094 3092
3102 3102 3103 3105 3106 3107 3109 3110 3110 3111 3111 3112 3112 3113 3113 3114 3114 3114 3114 3113 3113 3112 3111 3110 3110 3109 3108 3107 3107 3106 3105 3104 3103 3102 3101 3100 3099 3097 3096 3095 3093 3092
3099 3100 3101 3103 3105 3106 3107 3108 3108 3109 3110 3110 3111 3111 3112 3112 3112 3112 3112 3112 3111 3110 3110 3109 3109 3108 3107 3106 3105 3105 3104 3103 3102 3101 3100 3099 3098 3097 3095 3094 3093 3091
3096 3098 3100 3102 3103 3104 3105 3106 3107 3108 3108 3109 3109 3110 3110 3110 3110 3110 3110 3110 3109 3109 3108 3108 3107 3107 3106 3105 3104 3104 3103 3102 3101 3101 3100 3098 3097 3096 3095 3093 3092 3091
3095 3096 3099 3100 3101 3103 3104 3105 3106 3106 3107 3107 3108 3108 3108 3109 3109 3109 3108 3108 3108 3107 3107 3107 3106 3106 3105 3104 3103 3103 3102 3101 3100 3100 3099 3098 3096 3095 3094 3093 3091 3090
3094 3096 3097 3099 3100 3101 3102 3103 3104 3104 3105 3106 3106 3106 3107 3107 3107 3107 3106 3106 3106 3106 3106 3106 3105 3105 3104 3103 3103 3102 3101 3101 3100 3099 3098 3097 3096 3095 3094 3092 3091 3090
Wind_Speed
20 21 23 17 14 15 14 12 13 12 12 14 16 16 16 16 18 18 18 17 16 15 15 16 17 17 18 18 19 19 19 20 20 21 22 22 22 21 19 17 16 17
20 20 21 15 12 14 13 13 13 13 13 15 16 16 16 17 18 19 18 17 16 16 16 17 18 19 19 20 20 20 20 20 20 21 21 22 21 20 18 15 15 16
21 20 18 13 12 14 13 14 14 14 15 15 16 16 16 18 19 19 18 16 16 16 17 18 19 20 20 20 21 20 21 21 21 21 22 22 21 20 17 15 14 16
21 20 17 15 14 15 15 15 15 15 15 15 16 16 17 18 19 19 17 16 16 16 17 18 19 20 20 20 20 20 20 21 21 22 22 22 22 21 19 17 16 16
22 21 19 17 17 17 16 16 16 15 16 16 16 16 17 18 19 18 17 16 16 16 17 18 19 19 20 19 20 20 20 21 22 22 23 23 23 22 21 20 18 17
23 22 20 18 18 18 17 17 16 16 16 16 17 17 17 18 19 18 17 16 16 16 18 18 19 19 19 19 20 20 21 22 23 24 24 23 24 24 23 21 19 19
21 21 20 19 19 19 18 17 17 17 17 17 17 17 18 18 19 18 17 16 16 17 18 19 19 19 20 20 21 21 22 23 24 24 25 24 24 24 22 21 20 20
18 19 20 20 20 19 18 17 17 17 17 17 18 18 18 18 19 18 16 16 17 18 19 19 20 20 20 21 21 22 23 24 24 25 25 24 24 24 22 21 21 20
17 18 19 20 20 19 18 18 18 18 18 18 18 18 18 18 19 17 16 16 17 19 20 20 20 21 21 21 21 22 23 24 25 26 25 24 23 22 20 20 19 18
17 17 19 20 19 19 18 19 19 19 19 19 19 18 18 18 18 17 16 17 18 19 20 21 21 21 21 21 22 22 23 24 25 26 25 24 23 21 19 18 19 18
20 19 20 20 20 19 19 19 19 19 19 19 18 18 18 18 17 17 17 18 19 20 20 21 21 21 21 21 22 22 23 24 25 25 24 23 22 21 20 20 20 20
23 23 23 22 21 20 19 19 19 19 19 18 17 17 17 17 17 16 17 18 19 20 20 21 21 21 21 21 21 22 23 24 24 25 24 23 22 22 22 21 21 20
24 24 24 23 22 21 21 20 20 19 18 17 16 16 17 16 16 16 16 18 18 19 20 21 21 21 21 21 21 22 23 23 24 24 24 23 22 22 22 20 19 18
24 24 23 22 21 21 21 21 20 18 17 16 15 15 15 15 15 15 16 17 18 19 20 21 21 21 21 21 21 22 22 23 23 23 23 22 22 21 20 19 17 16
21 20 19 19 20 21 21 20 18 17 16 15 15 14 14 14 14 15 15 16 18 19 20 21 21 21 21 21 21 22 22 23 23 22 22 21 20 20 18 17 16 15
18 17 18 19 20 19 18 17 16 16 15 14 13 13 13 13 13 14 15 16 18 20 21 21 21 21 21 21 21 21 21 22 21 20 20 19 18 18 17 16 16 15
17 16 17 16 15 15 15 15 15 15 14 13 13 12 12 13 13 14 15 17 19 20 21 21 20 20 20 20 20 20 20 20 19 18 17 17 16 15 14 14 14 14
16 16 15 13 12 13 14 15 15 15 14 12 12 12 12 12 13 14 15 17 19 20 20 20 20 20 20 19 19 19 19 18 17 16 15 14 13 12 12 12 12 13
17 18 18 15 14 14 15 15 14 14 13 12 12 12 12 12 13 14 16 18 19 20 20 20 20 20 19 18 18 19 18 17 15 14 13 13 12 12 11 11 12 12
21 23 23 19 15 15 15 15 14 14 13 13 13 12 12 12 13 14 16 18 19 19 20 20 19 19 18 17 17 17 16 15 14 13 13 13 12 12 12 12 12 12
26 28 25 19 16 16 16 15 15 14 13 13 13 12 12 12 13 15 16 18 19 19 19 19 18 17 16 16 16 16 15 14 14 13 13 13 13 13 13 13 13 13
29 28 23 19 17 16 16 16 15 14 14 14 13 12 12 12 13 15 16 18 18 18 18 17 16 16 15 15 15 14 14 14 13 13 13 13 13 13 13 13 13 13
29 26 21 19 18 17 16 16 16 15 14 14 12 12 12 12 13 15 16 17 17 17 16 15 15 15 15 15 15 14 13 13 13 13 13 13 12 12 12 12 12 12
27 24 21 19 18 18 17 17 16 15 14 13 12 11 11 12 13 15 16 16 16 15 14 14 14 14 14 14 14 14 13 13 12 12 12 12 11 11 11 11 10 10
24 22 20 19 18 18 18 17 16 15 14 12 11 11 11 12 13 14 15 15 14 13 13 13 13 14 13 13 13 13 12 12 12 11 11 11 10 10 9 8 8 9
23 21 20 19 19 18 18 17 16 15 13 12 11 11 12 12 13 13 13 13 12 12 12 12 12 12 12 12 12 12 11 11 11 10 9 8 8 7 7 8 8 8
Wind_Direction
215 221 231 219 202 221 236 249 264 274 284 291 294 299 306 312 319 326 330 330 328 327 328 329 329 328 327 325 324 323 320 319 317 316 315 314 314 315 315 320 323 321
222 224 231 223 214 230 242 254 265 274 281 287 293 299 306 312 319 326 329 328 326 326 328 328 328 327 327 326 324 323 321 319 318 317 317 316 315 315 316 318 318 315
212 214 220 222 228 241 250 258 266 273 279 286 294 299 305 311 318 324 326 325 323 324 327 328 328 327 326 326 324 322 321 320 319 318 317 316 315 314 314 313 309 308
207 215 222 230 239 247 252 258 265 270 278 288 294 299 303 308 316 322 322 320 320 324 327 327 327 326 326 325 324 322 322 321 320 318 316 314 312 310 309 308 305 305
212 223 229 236 244 249 253 258 264 270 279 287 292 297 300 305 314 318 316 315 320 324 324 325 326 326 325 324 323 323 323 322 321 318 315 313 311 309 308 309 308 307
221 228 233 240 247 251 255 259 265 271 279 286 292 296 297 303 312 312 311 313 318 320 321 324 326 325 324 322 321 323 323 322 321 317 314 313 311 310 310 311 309 307
227 233 239 244 249 252 256 261 267 273 281 288 292 293 294 301 307 307 308 312 314 316 319 323 325 324 322 321 321 323 323 322 320 317 315 313 312 311 311 309 308 308
231 239 245 247 249 253 257 263 270 276 283 289 290 291 292 298 303 304 306 309 311 315 320 323 324 323 321 320 321 322 322 322 319 317 315 313 311 310 309 309 308 309
233 242 246 248 250 254 259 266 273 278 284 289 289 289 290 295 300 301 303 307 311 316 320 321 322 321 320 319 320 321 322 322 320 317 315 312 309 309 310 310 310 311
234 243 246 250 252 256 262 269 276 280 285 288 288 286 289 293 297 299 302 307 312 316 319 320 320 320 320 318 319 321 322 322 319 317 315 313 311 310 311 309 309 310
236 245 249 254 257 261 268 273 279 284 286 287 285 284 286 290 293 297 303 309 313 316 318 320 320 319 319 317 318 321 322 321 319 318 317 314 312 311 310 309 309 310
240 249 254 259 263 268 273 278 282 285 285 282 280 280 283 287 291 297 305 310 313 317 319 320 319 318 317 316 317 320 321 320 319 318 317 314 312 311 312 313 314 314
245 251 256 261 265 270 276 280 282 282 279 275 273 275 279 284 291 299 306 310 314 318 319 319 318 317 317 316 317 319 320 319 319 318 317 316 314 314 315 318 319 320
244 249 254 259 265 272 277 278 277 272 268 265 265 270 276 283 292 301 306 311 316 319 319 318 318 317 317 317 317 318 319 319 318 317 318 317 316 316 317 320 323 325
238 244 252 261 269 274 274 270 265 260 257 256 260 266 274 283 293 301 307 312 316 318 318 318 318 317 317 316 316 318 319 319 318 317 317 317 317 317 318 321 325 328
234 245 257 267 270 268 262 255 251 250 250 252 258 266 274 284 293 299 306 312 315 317 317 317 316 315 315 315 316 318 319 317 317 316 316 316 316 317 319 321 324 327
238 252 264 270 267 258 248 244 244 245 248 251 257 266 274 284 291 297 305 312 314 315 315 314 314 313 313 314 315 317 317 316 316 316 316 317 317 318 321 324 328 331
245 260 270 272 265 253 243 241 244 247 250 253 258 266 274 281 288 296 305 310 312 312 312 311 312 312 313 314 315 316 316 315 316 318 320 321 321 323 328 334 338 340
246 260 268 269 262 252 244 244 248 249 252 256 260 266 273 279 288 297 304 307 309 310 310 310 311 312 313 314 315 316 316 315 317 320 322 324 326 328 334 341 345 346
241 252 261 263 260 254 248 247 251 252 254 258 261 266 273 279 289 296 301 305 307 309 309 310 311 312 313 314 315 315 315 314 316 318 320 324 327 329 334 340 343 345
238 246 254 258 259 255 250 249 252 253 255 259 262 267 273 280 289 295 300 304 306 308 309 310 311 311 312 313 313 314 314 313 315 317 319 322 324 326 330 336 338 340
236 242 250 256 257 255 251 250 252 253 255 258 261 266 273 281 289 295 300 304 306 308 309 310 310 309 311 312 312 313 313 312 314 316 319 322 323 323 328 333 334 334
235 241 248 254 255 253 249 249 250 250 252 255 257 264 272 282 289 295 300 303 305 307 308 308 308 308 310 311 311 312 312 313 315 318 320 322 323 325 329 331 328 328
235 241 247 251 251 249 247 248 248 248 249 252 256 264 273 282 289 294 299 302 305 307 306 306 306 307 309 311 312 314 316 318 320 321 322 323 325 329 330 328 327 331
237 243 248 248 247 245 245 246 246 246 249 252 257 265 273 281 288 294 299 302 304 303 302 303 304 306 308 311 312 315 319 322 323 323 324 327 330 333 334 338 347 353
241 245 245 243 242 242 243 244 244 246 249 251 256 265 274 282 288 294 299 301 300 297 298 301 304 305 307 310 313 317 321 322 322 326 330 335 342 353 5 16 21 20